Flag for Norway Weather past 2 weeks in Hammerfest, Norway

Now
37 °F

Rain. Broken clouds.


Feels Like: 25 °F
Forecast: 30 / 35 °F
Wind: 29 mph from Southwest

Location: Hammerfest


UV Index: 0 (Low)

Visibility: N/A


Pressure: 29.45 "Hg

Humidity: 81%

Dew point: 32 °F

Location of HammerfestLocation

Historic Weather in Hammerfest

°F

Hammerfest temperature yesterday

Maximum temperature yesterday: 34 °F (at 1:50 AM)
Minimum temperature yesterday: 30 °F (at 4:50 AM)
Average temperature yesterday: 32 °F

Past Weeks' High & Low Weather Summary

 TemperatureHumidityPressure
High41 °F (Apr 19, 7:50 AM)100% (Apr 8, 5:50 AM)30.09 "Hg (Apr 8, 5:50 AM)
Low18 °F (Apr 8, 5:50 AM)47% (Apr 9, 12:50 PM)29.00 "Hg (Apr 13, 3:50 AM)
Average32 °F77%29.52 "Hg
* Reported Apr 4 2:50 PM — Apr 19 2:50 PM, Hammerfest, Weather by CustomWeather, © 2014

Note: Actual official high and low records may vary slightly from our data, if they occured in-between our weather recording intervals... More about our weather records

Advertising

Historic Weather Conditions — Data for Previous 24 hours

 ConditionsComfort  
Time TempWeatherWind HumidityBarometerVisibility
2:50 PM
Apr 19
37 °FRain. Broken clouds.29 mph81%29.45 "HgN/A
1:50 PM36 °FRain. Partly sunny.24 mph87%29.42 "HgN/A
12:50 PM39 °FScattered showers. Partly sunny.21 mph75%29.42 "HgN/A
11:50 AM37 °FRain. Broken clouds.20 mph87%29.42 "HgN/A
10:50 AM37 °FRain. Broken clouds.31 mph81%29.39 "Hg5 mi
9:50 AM37 °FRain. Partly sunny.26 mph87%29.36 "HgN/A
8:50 AM37 °FHeavy rain. Partly sunny.23 mph87%29.36 "Hg2 mi
7:50 AM41 °FRain. Partly sunny.39 mph70%29.33 "HgN/A
6:50 AM37 °FRain showers. Broken clouds.22 mph87%29.33 "HgN/A
5:50 AM39 °FDrizzle. Partly sunny.35 mph70%29.36 "HgN/A
4:50 AM39 °FPartly cloudy.31 mph75%29.36 "HgN/A
3:50 AM37 °FPassing clouds.25 mph81%29.36 "HgN/A
2:50 AM39 °FFog.28 mph70%29.33 "HgN/A
1:50 AM36 °FOvercast.21 mph70%29.33 "HgN/A
12:50 AM34 °FPassing clouds.20 mph75%29.39 "HgN/A
11:50 PM
Apr 18
34 °FPassing clouds.15 mph70%29.45 "HgN/A
10:50 PM34 °FPassing clouds.14 mph70%29.50 "HgN/A
9:50 PM34 °FChilly.15 mph70%29.56 "HgN/A
8:50 PM32 °FScattered clouds.12 mph75%29.59 "HgN/A
7:50 PM32 °FPartly sunny.12 mph75%29.62 "HgN/A
6:50 PM32 °FScattered showers. Broken clouds.14 mph75%29.65 "HgN/A
5:50 PM30 °FSnow flurries. Broken clouds.8 mph93%29.68 "HgN/A
4:50 PM30 °FLight snow. Mostly cloudy.13 mph93%29.68 "Hg3 mi
3:50 PM30 °FLight snow. Broken clouds.16 mph86%29.68 "Hg1 mi
Weather by CustomWeather, © 2014

See weather overview